COSMOS 2251 DEB, 35586

Orbit data source: Space-Track

COSMOS 2251 DEB, 35586 is space debris in LEO originally from a launch on Wed, 16 Jun 1993 UTC launched from the Plesetsk Missile And Space Complex (PKMTR). The debris from Iridium 33, an American commercial communications satellite, has been tracked extensively since its accidental collision with the defunct Russian satellite Cosmos 2251 in 2009. This event, occurring at high speed in low Earth orbit (LEO), generated thousands of pieces of space debris, significantly increasing the risk of further collisions. The Iridium 33 debris cloud has impacted space traffic management and orbital debris mitigation strategies, making it a subject of ongoing study in space situational awareness.

Loading next visibility...
Identifier
35586, 1993-036AMD
Orbit
LEO
Country
Flag of CISCIS
Related business
Manufacturer
Unknown
Mission
Spacecraft
Bus & Motor
Unknown
Mass
Unknown
Launch date (UTC)
1993-06-16 (33 years ago)
Launch vehicle
Unknown
Launch site
Plesetsk Missile And Space Complex (PKMTR)
Object type
Payload
Rocket body
Debris
Shape & HBR
Unknown shape, 0.1 m
Radar Cross Section
Small (<0.1 m²)

Expand to show TLE details & history
Last TLE update: 2 days ago

TLE from 2 days ago
0 COSMOS 2251 DEB
1 35586U 93036AMD 25348.61247604  .00000381  00000-0  36473-3 0  9998
2 35586  74.0206 299.4762 0404534 174.4140   3.0917 13.52086543604072
Epoch: 2025-12-14T14:41Z
TLE epoch observation values (Epoch: 2025-12-14T14:41:57.929Z)
Latitude
2.04915°
Longitude
174.87805°
Altitude
766.206 km
Speed
7.621 km/s
True Right ascension
07h 55m 34s
True Declination
2° 02' 13"
Sunlit
Object was in full shadow at epoch
Visualization orbit readout
Latitude
Unknown
Longitude
Unknown
Altitude
Unknown
Speed
Unknown
Apparent Right ascension
Unknown
Apparent Declination
Unknown
Sunlit
N/A
Visualization observer readout
Local Sidereal Time
01:39:54
Azimuth
Unknown
Elevation
Unknown
Doppler factor
Unknown
Orbital elements
Apogee altitude
1,363.296 km
Perigee altitude
761.314 km
Semi-major axis
7,440.442 km
Eccentricity
0.04045
Inclination
74.0206°
RAAN
299.4762°
Arg. of periapsis
174.414°
True anomaly
3.35498°
Mean anomaly
3.0917°
Eccentric anomaly
3.22197°
Mean motion
3.38178 °/min
Orbital period
106.45 mins
BSTAR
0.00036473

Documentation

Showing up to 5 results
|